Regional Weather Roundup
Issued by NWS

Home | Current Version | Previous Version | Text Only | Print | Product List | Glossary Off
Versions: 1 2 3 4 5 6 7 8 9 10 11 12 13 14 15 16 17 18 19 20 21 22 23 24 25 26 27 28 29 30 31 32 33 34 35 36 37 38 39 40 41 42 43 44 45 46 47 48 49 50

000
ASUS44 KMEG 291110
RWRTN
TENNESSEE HOURLY STATE WEATHER ROUNDUP
NATIONAL WEATHER SERVICE MEMPHIS TN
500 AM CST MON DEC 29 2014

TNZ002-004-019-021-049-052-054-088>092-291200-
WEST TENNESSEE

CITY           SKY/WX    TMP DP  RH WIND       PRES   REMARKS
MEMPHIS INTL   CLOUDY    38  34  85 NE8       30.16S WCI  32
NWS MEMPHIS      N/A     37 N/A N/A MISG        N/A
JACKSON        CLOUDY    36  33  89 N9        30.16S WCI  29
DYERSBURG      CLOUDY    34  19  55 N7        30.21R WCI  28
UNION CITY     CLOUDY    30  28  93 N7        30.18S WCI  23
PARIS          CLOUDY    30  28  93 N9        30.16F WCI  22
LEXINGTON      CLOUDY    34  34 100 NE6       30.13S WCI  29
SAVANNAH       CLOUDY    37  37 100 N7        30.13R WCI  32
$$

TNZ008-025-027-028-033-062-065-066-291200-
NORTH MIDDLE TENNESSEE

CITY           SKY/WX    TMP DP  RH WIND       PRES   REMARKS
NASHVILLE      CLOUDY    37  36  96 N7        30.14F FOG     WCI  32
CLARKSVILLE    CLOUDY    34  31  88 N8        30.17S WCI  27
SMYRNA         CLOUDY    38  37  96 N7        30.15S FOG     WCI  33
COOKEVILLE     CLOUDY    39  39 100 N5        30.09S
CROSSVILLE     CLOUDY    42  39  89 NE5       30.07S
$$

TNZ061-075-076-078-094-096-097-291200-
SOUTH MIDDLE TENNESSEE

CITY           SKY/WX    TMP DP  RH WIND       PRES   REMARKS
FAYETTEVILLE   CLOUDY    37  36  93 N8        30.09S WCI  31
TULLAHOMA      CLOUDY    37  37 100 N7        30.10R WCI  32
WINCHESTER     CLOUDY    39  39 100 NW5       30.09S
MCMINNVILLE    CLOUDY    39  39 100 CALM      30.10S
COLUMBIA       CLOUDY   N/A N/A N/A N3        30.10F
SHELBYVILLE    CLOUDY    37  37 100 N6        30.12S WCI  33
$$

TNZ017-018-042-046-047-291200-
NORTHEAST TENNESSEE

CITY           SKY/WX    TMP DP  RH WIND       PRES   REMARKS
TRI CITIES     FOG       47  47 100 CALM      30.05F VSB 1
ELIZABETHTON   LGT RAIN  46  46 100 CALM      30.04S
$$

TNZ012-013-036-069-073-074-291200-
CENTRAL EAST TENNESSEE

CITY           SKY/WX    TMP DP  RH WIND       PRES   REMARKS
KNOXVILLE      LGT RAIN  46  45  96 N5        30.06S
OAK RIDGE      LGT RAIN  45  43  93 CALM      30.08S
GATLINBURG     CLOUDY    46  46 100 NW3       30.05S
MORRISTOWN     CLOUDY    46  46 100 CALM      30.06S VSB 1/2
$$

TNZ083-085-099-291200-
SOUTHEAST TENNESSEE

CITY           SKY/WX    TMP DP  RH WIND       PRES   REMARKS
CHATTANOOGA    CLOUDY    49  47  93 NE3       30.06S
$$

SKY/WX REPORTED AS FAIR MEANS FEW OR NO CLOUDS BELOW
12 THOUSAND FEET.



USA.gov is the U.S. government's official web portal to all federal, state and local government web resources and services.